Location: ??
(35.3149°N, 139.6204°E)
Time: 10:32:28
(UTC+00:00)

CZ-4 R/B - Pass Details

Date: 03 August 2024
Orbit: 677 x 748 km, 98.6° (Epoch: 09 September)

Event Time Altitude Azimuth Distance (km) Brightness Sun altitude
Rises 18:22:00 0° 9° (N) 3,124 7.9 -17.0°
Reaches altitude 10° 18:24:18 10° 7° (N) 2,189 7.0 -16.6°
Maximum altitude 18:29:03 66° 285° (WNW) 761 3.8 -15.8°
Enters shadow 18:32:06 21° 208° (SSW) 1,520 5.0 -15.3°
